星链-30462 (STARLINK-30462 )

导读

STARLINK-30462是美国星链星座的组网卫星,于2023年9月20日发射升空,属于SpaceX公司打造的低轨卫星互联网星座组成部分。星链系统通过大规模部署低轨卫星,为全球提供高速互联网服务,该卫星入轨后,进一步扩充了星链星座的组网规模,提升了全球覆盖与通信服务能力。

基本信息
目录编号:
57902
目录名称:
STARLINK-30462
国际标识:
2023-146M
轨道中心:
EARTH
卫星名称:
星链-30462
卫星全名:
星链-30462 (STARLINK-30462 )
卫星状态:
在轨 (已飞行1081 天)
发射日期:
2023-09-20 UTC
国别 :
美国 (US)
星等 :
--
轨道信息
数据来源 国际轨道数据 AOE轨道数据
星历时间 2026-09-04T23:37:32+0800
1天前
查看轨道信息
2026-09-05T02:00:00+0800
21小时前
查看轨道信息
半长轴 6861.197km 6861.202km
偏心率 0.0001452 0.000139
轨道倾角 43.004° 43.007°
近地点辐角 270.892° 268.995°
升交点赤经 23.728° 23.172°
平近点角 89.176° 275.796°
近地点 482.063km 482.111km
远地点 484.057km 484.019km
周期 94.267分钟 94.267分钟
每日圈数 15.275764 15.27575
详细信息
固有亮度:
5
最大亮度:
0.3
卫星平台:
Starlink v2.0 mini
覆盖范围:
全球
运营商:
太空探索技术公司
运营商所在国:
美国
制造商(研发单位):
太空探索技术公司
制造商所在国:
美国
使用方式:
暂无
卫星简介
星链(Starlink)计划是由太空探索技术公司(SpaceX)提出的一个巨型低轨卫星互联网星座项目,计划在2019年至2024年间在太空搭建由约1.2万颗卫星组成的“星链”网络,其中1584颗将部署在地球上空550千米处的近地轨道,并从2020年开始工作。该卫星仍在工作。
2D轨道图
3D轨道图
轨道高度分析图
轨道倾角分析图
轨道综合分析图
查看轨道综合分析图
交会数据列表
事件ID 空间交会对象 最接近时刻(TCA) 交会距离 交会风险概率(CRP) 交会风险指数(CRI) 操作
CDM_260829-103905-790206-196721
2026-08-29T
10:39:20+0000
0.141 km
中距离
9.296031E-4 高风险 0.94
CDM_260907-082705-790206-312121
2026-09-07T
08:27:12+0000
0.482 km
远距离
1.18403E-4 高风险 0.76
CDM_260906-234905-790206-312121
2026-09-06T
23:49:22+0000
0.587 km
远距离
7.022875E-5 中风险 0.72
CDM_260907-012305-790206-312121
2026-09-07T
01:23:31+0000
1.550 km
极远距离
2.948131E-6 低风险 0.44
CDM_260907-002205-307205-790221
2026-09-07T
00:22:29+0000
2.008 km
极远距离
2.085741E-6 低风险 0.41
CDM_260907-065305-790206-312121
2026-09-07T
06:53:03+0000
1.828 km
极远距离
1.841907E-6 低风险 0.4
CDM_260829-090505-790206-196721
2026-08-29T
09:05:11+0000
2.340 km
极远距离
1.558147E-6 低风险 0.39
CDM_260906-221505-790206-312121
2026-09-06T
22:15:12+0000
2.510 km
极远距离
9.339622E-7 极低风险 0.34
CDM_260907-100105-790206-312121
2026-09-07T
10:01:21+0000
2.720 km
极远距离
8.28608E-7 极低风险 0.33